Pagina principale
METAR-TAF:

METAR-TAF

Aeroporti :

Wings Field

Filadelfia / Blue Bell, Pennsylvania, Stati Uniti

latitudine: 40-08-15N, longitudine: 075-15-54W, altezza: 92 m

Osservazione

Il bollettino è stato emesso 29 minuti fa, alle 07:55 UTC
Vento 5 kt da nord/nord-ovest
Temperature 11°C
Umidità 94%
Pressione 1018 hPa
Visibilità: 16.1 km
Nubi sparse ad un'altezza di 7000 ft

METAR: KLOM 220755Z AUTO 34005KT 10SM SCT070 11/10 A3007 RMK AO1

Ora: 04:24 (08:24 UTC)


TAF: mancante

Osservazioni e previsioni meteorologiche di più di 4000 aeroporti (messaggi METAR e TAF).

Le stazioni disponibili sono rappresentate dai dischi gialli e rossi sulla carta.

Puntare il mouse per vedere il nome della stazione.

Clicca sopra per visualizzare le osservazioni e previsioni meteorologiche.

Per cambiare la mappa : fare clic sui pulsanti verdi con una croce nera per ingrandire, il pulsante verde con un trattino per diminuire, o sulla freccia verde per le mappe adiacenti.


METAR-TAF: